{"data":{"norad_id":62555,"epoch":"2026-09-21T16:53:58.229952Z","epoch_age_seconds":67250,"freshness":"FRESH","line1":"1 62555U 25006B   26264.70414618  .00147609  00000+0  11306-2 0  9996","line2":"2 62555  43.0032  38.0991 0002877 288.0333  72.0221 15.70899026 97432","mean_motion":15.70899026,"eccentricity":0.0002877,"inclination_deg":43.0032,"raan_deg":38.0991,"arg_perigee_deg":288.0333,"mean_anomaly_deg":72.0221,"bstar":0.0011306,"rev_number":9743,"period_min":91.66725398428,"perigee_km":354.38885438776,"apogee_km":358.26386460481,"semimajor_km":6734.4633594963,"source":"CELESTRAK","updated_at":"2026-09-22T09:00:49.626082Z"}}